Hoolehua, HI

9:45 AM HST on August 28, 2016 (GMT -1000)
Molokai

Weather History for PHMK - July, 2014

Change the Weather History Date:

Tuesday, July 15, 2014

  Actual Average Record
Temperature  
Mean Temperature 80 °F -  
Max Temperature 84 °F 83 °F 89 °F (1984)
Min Temperature 75 °F 71 °F 64 °F (2008)
Cooling Degree Days 14    
Growing Degree Days 30 (Base 50)    
Moisture  
Dew Point 74 °F    
Average Humidity 88    
Maximum Humidity 100    
Minimum Humidity 69    
Precipitation  
Precipitation 0.00 in - - ()
Sea Level Pressure  
Sea Level Pressure 30.07 in    
Wind  
Wind Speed 14 mph (NNE)    
Max Wind Speed 18 mph    
Max Gust Speed 30 mph    
Visibility 9 miles    
Events Rain    
Averages and records for this station are not official NWS values.
T = Trace of Precipitation, MM = Missing Value Source: NWS Daily Summary

Daily Weather History Graph

Daily Weather History Graph

Search for Another Location

Airport or City:

Trip Planner

Search our weather history database for the weather conditions in past years. The results will help you decide how hot, cold, wet, or windy it might be!

Date:

Astronomy

Jul. 15, 2014 Rise Set
Actual Time 5:55 AM HST 7:13 PM HST
Civil Twilight 5:31 AM HST 7:37 PM HST
Nautical Twilight 5:02 AM HST 8:06 PM HST
Astronomical Twilight 4:32 AM HST 8:36 PM HST
Moon 10:07 PM HST (7/15) 9:28 AM HST (7/15)
Length of Visible Light 14h 06m
Length of Day
13h 17m
Waning Gibbous, 83% of the Moon is Illuminated
Jul 15
Waning Gibbous
Jul 18
Last Quarter
Jul 26
New
Aug 3
First Quarter
Aug 10
Full

Hourly Weather History & Observations

Time (HST) Temp. Heat Index Dew Point Humidity Pressure Visibility Wind Dir Wind Speed Gust Speed Precip Events Conditions
12:54 AM 75.9 °F - 72.0 °F 87% 30.08 in 10.0 mi NNE 13.8 mph 20.7 mph N/A   Clear
1:54 AM 75.9 °F - 73.0 °F 91% 30.08 in 10.0 mi NNE 12.7 mph - N/A   Clear
2:54 AM 75.9 °F - 73.9 °F 94% 30.07 in 10.0 mi NE 11.5 mph 19.6 mph N/A   Clear
3:54 AM 75.9 °F - 73.9 °F 94% 30.07 in 10.0 mi NE 12.7 mph 25.3 mph N/A   Clear
4:54 AM 75.0 °F - 73.0 °F 94% 30.07 in 10.0 mi NNE 11.5 mph 23.0 mph N/A   Clear
5:54 AM 75.9 °F - 73.0 °F 91% 30.09 in 10.0 mi NNE 16.1 mph 23.0 mph N/A   Partly Cloudy
6:54 AM 75.9 °F - 73.9 °F 94% 30.11 in 10.0 mi NNE 13.8 mph 19.6 mph N/A   Partly Cloudy
7:54 AM 77.0 °F - 73.0 °F 88% 30.12 in 10.0 mi NE 13.8 mph 19.6 mph N/A   Mostly Cloudy
8:32 AM 78.8 °F - 73.4 °F 83% 30.11 in 10.0 mi NE 10.4 mph 18.4 mph N/A   Scattered Clouds
8:54 AM 79.0 °F - 72.0 °F 79% 30.12 in 10.0 mi NE 13.8 mph 25.3 mph N/A   Scattered Clouds
9:54 AM 82.0 °F 87.4 °F 73.0 °F 74% 30.12 in 10.0 mi NE 11.5 mph 23.0 mph N/A   Scattered Clouds
10:54 AM 82.0 °F 86.3 °F 71.1 °F 69% 30.11 in 10.0 mi NE 16.1 mph 25.3 mph N/A   Scattered Clouds
11:54 AM 81.0 °F 86.2 °F 73.9 °F 79% 30.09 in 10.0 mi NNE 17.3 mph 26.5 mph N/A   Scattered Clouds
12:54 PM 84.0 °F 91.2 °F 73.9 °F 72% 30.08 in 10.0 mi NNE 16.1 mph 26.5 mph N/A   Partly Cloudy
1:54 PM 81.0 °F 85.8 °F 73.0 °F 77% 30.07 in 10.0 mi NNE 16.1 mph 27.6 mph N/A   Partly Cloudy
2:30 PM 80.6 °F 86.2 °F 75.2 °F 84% 30.05 in 7.0 mi NNE 15.0 mph 25.3 mph 0.00 in Rain Light Rain
2:35 PM 78.8 °F - 75.2 °F 89% 30.06 in 8.0 mi NNE 17.3 mph 27.6 mph 0.00 in   Mostly Cloudy
2:54 PM 78.1 °F - 75.9 °F 93% 30.07 in 5.0 mi NNE 13.8 mph 21.9 mph 0.00 in Rain Light Rain
3:01 PM 78.8 °F - 77.0 °F 94% 30.06 in 5.0 mi NNE 12.7 mph 21.9 mph 0.00 in Rain Light Rain
3:28 PM 80.6 °F 86.2 °F 75.2 °F 84% 30.04 in 10.0 mi NNE 12.7 mph 21.9 mph 0.00 in   Scattered Clouds
3:35 PM 80.6 °F 86.2 °F 75.2 °F 84% 30.04 in 10.0 mi NNE 13.8 mph 24.2 mph 0.00 in   Mostly Cloudy
3:54 PM 81.0 °F 86.7 °F 75.0 °F 82% 30.04 in 10.0 mi NNE 16.1 mph 29.9 mph 0.00 in   Scattered Clouds
4:01 PM 80.6 °F 86.2 °F 75.2 °F 84% 30.04 in 10.0 mi NNE 13.8 mph 29.9 mph N/A   Mostly Cloudy
4:09 PM 80.6 °F 86.2 °F 75.2 °F 84% 30.04 in 10.0 mi NE 18.4 mph 26.5 mph N/A   Scattered Clouds
4:54 PM 81.0 °F 86.2 °F 73.9 °F 79% 30.04 in 10.0 mi NE 16.1 mph 24.2 mph N/A   Partly Cloudy
5:54 PM 79.0 °F - 73.9 °F 84% 30.05 in 10.0 mi NNE 10.4 mph 20.7 mph 0.00 in   Partly Cloudy
6:54 PM 75.9 °F - 75.9 °F 100% 30.06 in 6.0 mi NE 13.8 mph 21.9 mph 0.00 in Rain Light Rain
7:44 PM 75.2 °F - 75.2 °F 100% 30.06 in 10.0 mi NNE 12.7 mph 25.3 mph 0.00 in   Mostly Cloudy
7:54 PM 75.0 °F - 75.0 °F 100% 30.08 in 10.0 mi NE 9.2 mph 18.4 mph 0.00 in   Mostly Cloudy
8:54 PM 75.9 °F - 75.0 °F 97% 30.08 in 10.0 mi NNE 12.7 mph 21.9 mph N/A   Clear
9:54 PM 75.0 °F - 75.0 °F 100% 30.09 in 8.0 mi NNE 12.7 mph 19.6 mph 0.00 in Rain Light Rain
10:54 PM 75.9 °F - 75.0 °F 97% 30.09 in 10.0 mi NE 13.8 mph 23.0 mph 0.00 in   Mostly Cloudy
11:54 PM 75.9 °F - 75.0 °F 97% 30.08 in 10.0 mi NE 11.5 mph 21.9 mph N/A   Overcast